This demonstration page uses our WeatherBlox Daily Observations layout. Learn more.

Left ArrowRight Arrow

Hourly Observations for June 19, 2021

Temp ( °F °C ) Dew Point ( °F °C ) Humidity (%) Winds ( mph kmh ) Pressure ( in mb ) Visibility ( mi km ) Precip ( " mm )
12:19 am 00:19 Mostly Cloudy 68 20 66 18.9 93 93 VRB 6 9 29.92 1013 10 16 N/A
12:30 am 00:30 Partly Cloudy 68 20 66 18.9 93 93 VRB 6 9 29.94 1014 10 16 N/A
12:53 am 00:53 Clear 68 20 66 18.9 93 93 VRB 3 6 29.94 1014 10 16 N/A
1:22 am 01:22 Partly Cloudy with Nearby Thunderstorms 68 20 66 18.9 93 93 VRB 6 9 29.94 1014 10 16 0.01 0.25
1:53 am 01:53 Partly Cloudy with Light Rain 68 20 67 19.4 96 96 VRB 5 7 29.93 1014 9 14 0.02 0.51
2:25 am 02:25 Mostly Cloudy with Nearby Thunderstorms 68 20 67 19.4 96 96 VRB 3 6 29.94 1014 10 16 0.02 0.51
2:37 am 02:37 Mostly Cloudy with Light Rain 69 20.6 67 19.4 93 93 E 7 11 29.93 1014 10 16 0.03 0.76
2:53 am 02:53 Mostly Cloudy with Light Rain 69 20.6 67 19.4 93 93 N N/A 29.91 1013 10 16 0.04 1.02
3:18 am 03:18 Mostly Cloudy with Light Rain 69 20.6 67 19.4 93 93 E 7 11 29.95 1014 10 16 0.02 0.51
3:38 am 03:38 Mostly Cloudy with Light Rain 68 20 67 19.4 96 96 VRB 3 6 29.93 1013 10 16 0.03 0.76
3:53 am 03:53 Mostly Cloudy with Rain 68 20 67 19.4 96 96 N N/A 29.94 1014 8 13 0.05 1.27
4:08 am 04:08 Cloudy with Nearby Thunderstorms 68 20 67 19.4 96 96 N N/A 29.97 1015 6 10 0.02 0.51
4:29 am 04:29 Cloudy with Nearby Thunderstorms 68 20 67 19.4 96 96 N N/A 29.98 1015 3 5 0.08 2.03
4:53 am 04:53 Cloudy with Nearby Thunderstorms 68 20 67 19.4 96 96 S 3 6 29.97 1015 4 6 0.15 3.81
5:28 am 05:28 Cloudy with Heavy Rain 68 20 67 19.4 96 96 VRB 3 6 29.96 1014 3 5 0.17 4.32
5:53 am 05:53 Cloudy with Rain 68 20 67 19.4 96 96 N N/A 29.96 1014 4 6 0.25 6.35
6:53 am 06:53 Cloudy with Rain 68 20 67 19.4 96 96 SSW 5 7 29.96 1015 4 6 0.18 4.57
7:17 am 07:17 Cloudy with Heavy Rain 68 20 67 19.4 96 96 VRB 3 6 30.01 1016 2 3 0.11 2.79
7:20 am 07:20 Cloudy with Heavy Thunderstorms 68 20 67 19.4 96 96 SW 3 6 30.01 1016 2 3 0.12 3.05
7:30 am 07:30 Cloudy with Thunderstorms 68 20 67 19.4 96 96 SW 3 6 30.01 1016 4 6 0.14 3.56
7:41 am 07:41 Cloudy with Rain 68 20 66 18.9 93 93 VRB 3 6 29.99 1015 5 8 0.16 4.06
7:53 am 07:53 Cloudy with Rain 68 20 66 18.9 93 93 N N/A 29.99 1016 5 8 0.18 4.57
8:03 am 08:03 Cloudy with Nearby Thunderstorms 68 20 66 18.9 93 93 WNW 9 15 30.03 1017 4 6 0.04 1.02
8:13 am 08:13 Cloudy with Heavy Thunderstorms 68 20 66 18.9 93 93 W 8 13 30.04 1017 3 5 0.08 2.03
8:22 am 08:22 Cloudy with Nearby Thunderstorms 68 20 66 18.9 93 93 W 6 9 30.05 1017 3 4 0.14 3.56
8:30 am 08:30 Cloudy with Heavy Thunderstorms 67 19.4 66 18.9 97 97 VRB 5 7 30.03 1017 3 5 0.17 4.32
8:53 am 08:53 Cloudy with Light Thunderstorms 67 19.4 66 18.9 97 97 SW 3 6 30.02 1017 5 8 0.21 5.33
9:10 am 09:10 Cloudy with Rain 67 19.4 66 18.9 97 97 VRB 3 6 30.03 1017 2 3 0.05 1.27
9:17 am 09:17 Cloudy with Nearby Thunderstorms 67 19.4 66 18.9 97 97 VRB 5 7 30.00 1016 3 5 0.08 2.03
9:33 am 09:33 Cloudy with Rain 67 19.4 65 18.3 93 93 SE 8 13 29.89 1012 4 6 0.14 3.56
9:44 am 09:44 Mostly Cloudy with Light Rain 67 19.4 65 18.3 93 93 VRB 7 11 29.89 1012 7 11 0.15 3.81
9:53 am 09:53 Mostly Cloudy with Light Rain 66 18.9 65 18.3 96 96 VRB 5 7 29.90 1013 10 16 0.15 3.81
10:53 am 10:53 Partly Cloudy 69 20.6 66 18.9 90 90 VRB 6 9 29.88 1012 10 16 0.00 0.00
11:53 am 11:53 Partly Cloudy 75 23.9 66 18.9 74 74 N N/A 29.85 1011 10 16 N/A
12:53 pm 12:53 Mostly Cloudy 76 24.4 65 18.3 69 69 SW 8 13 29.89 1012 10 16 N/A
1:53 pm 13:53 Sunny 74 23.3 66 18.9 76 76 SW 7 11 29.89 1012 10 16 N/A
2:53 pm 14:53 Sunny 78 25.6 67 19.4 69 69 undefined N/A 29.86 1011 10 16 N/A
3:53 pm 15:53 Sunny 79 26.1 67 19.4 67 67 VRB 5 7 29.84 1010 10 16 N/A
4:53 pm 16:53 Sunny 81 27.2 68 20 65 65 WSW 12 19 29.83 1010 10 16 N/A
5:53 pm 17:53 Partly Cloudy 82 27.8 69 20.6 65 65 WSW 8 13 29.81 1010 10 16 N/A
6:53 pm 18:53 Partly Cloudy 81 27.2 69 20.6 67 67 VRB 6 9 29.82 1010 10 16 N/A
7:53 pm 19:53 Mostly Cloudy 80 26.7 70 21.1 71 71 VRB 5 7 29.82 1010 10 16 N/A
8:53 pm 20:53 Mostly Cloudy 76 24.4 71 21.7 85 85 N N/A 29.82 1010 10 16 N/A
9:53 pm 21:53 Cloudy 75 23.9 72 22.2 90 90 N N/A 29.82 1010 8 13 N/A
10:53 pm 22:53 Cloudy 76 24.4 72 22.2 88 88 N N/A 29.83 1010 10 16 N/A
11:53 pm 23:53 Clear with Mist and Fog 73 22.8 71 21.7 94 94 N N/A 29.82 1010 6 10 N/A

Powered by AerisWeather